IRIDIUM 167 (43931 NORAD) Tracking and Keplerian Element Data

This shows tracking and keplerian element data for the satellite.

Feedback or suggestion? Click here.




ElementValue
Catalog43931
NameIRIDIUM 167
Epoch Orbit14161
Epoch Day268.50044451
Epoch Year2021
RAAN354.7689
Inclination86.4025
Eccentricity0.0002712
Argument of Perigee82.6316
Mean Anonmoly277.5188
Mean Motion14.34217149
Decay Rate1.15E-06
L11 43931U 19002K 21268.50044451 .00000115 00000-0 33888-4 0 9995
L22 43931 86.4025 354.7689 0002712 82.6316 277.5188 14.34217149141614

Live tracking and technical data element details for IRIDIUM 167 (NORAD 43931). IRIDIUM 167 can be tracked NOW for your location showing map with azimuth and elevation plus other details from your city location.

Track the satellite on the map from your city or location and see movement details for azimuth, elevation, latitude, longitude, range, height, and movement on the map or in text.







IsCatalogInMostPopularTable: catalog: 43931, numindb: 538
Update: records affected: 1



GetName: 43931 IRIDIUM 167

Hit Count: updated at: Mon, 27 Sep 2021 00:57:37 GMT